Location: Detroit
(42.3310°N, 83.0460°W)
Time: 15:38:20
(UTC-04:00)

BlueWalker 3 - Visible Passes

Search period start: 24 March 2023 00:00
Search period end: 03 April 2023 00:00
Orbit: 497 x 515 km, 53.2° (Epoch: 24 March)

Date Brightness Start Highest point End Pass type
(mag) Time Alt. Az. Time Alt. Az. Time Alt. Az.
24 Mar 3.3 05:10:15 33° ESE 05:10:15 33° ESE 05:12:27 10° ESE visible
24 Mar 3.6 06:45:04 12° W 06:46:46 15° SW 06:49:03 10° SSW visible
25 Mar 4.7 04:52:34 11° ESE 04:52:34 11° ESE 04:52:48 10° ESE visible
25 Mar 3.7 06:27:24 14° SW 06:27:24 14° SW 06:29:15 10° SSW visible
25 Mar 3.8 21:48:33 10° SSW 21:49:58 21° SSW 21:49:58 21° SSW visible
26 Mar 2.0 21:28:48 10° SW 21:32:35 52° SE 21:32:35 52° SE visible
27 Mar 2.0 21:09:01 10° SW 21:12:49 54° SE 21:14:53 25° ENE visible
27 Mar 4.5 22:48:06 10° W 22:49:41 20° WNW 22:49:41 20° WNW visible
28 Mar 2.0 20:49:12 10° SW 20:53:01 57° SE 20:56:51 10° ENE visible
28 Mar 3.8 22:28:21 10° W 22:31:38 29° NNW 22:31:38 29° NNW visible
29 Mar 2.0 20:29:21 10° SW 20:33:11 59° SE 20:37:02 10° ENE visible
29 Mar 3.8 22:08:33 10° W 22:11:59 28° NNW 22:13:17 23° N visible
30 Mar 3.8 21:48:43 10° W 21:52:08 28° NNW 21:54:42 15° NNE visible
30 Mar 5.3 23:29:09 10° NW 23:29:27 11° NW 23:29:27 11° NW visible
31 Mar 3.9 21:28:52 10° W 21:32:15 27° NNW 21:35:38 10° NE visible
31 Mar 4.9 23:09:18 10° NW 23:10:40 15° NNW 23:10:40 15° NNW visible
01 Apr 3.9 21:08:58 10° W 21:12:20 27° NNW 21:15:42 10° NE visible
01 Apr 4.6 22:49:23 10° NW 22:51:42 16° N 22:51:42 16° N visible
02 Apr 3.9 20:49:02 10° W 20:52:23 26° NNW 20:55:44 10° NE visible
02 Apr 4.4 22:29:26 10° NW 22:31:58 16° N 22:32:38 16° NNE visible
